Location: Fond Mahaut
(18.0707°N, 63.0465°W)
Time: 15:18:47
(UTC+00:00)

Gbstr 26 Del rocket - Pass Details

Date: 08 December 2019
Orbit: 493 x 1263 km, 51.8° (Epoch: 28 January)

Event Time Altitude Azimuth Distance (km) Brightness Sun altitude
Rises 22:23:14 0° 205° (SSW) 4,165 8.0 -11.1°
Reaches altitude 10° 22:26:17 10° 200° (SSW) 3,148 7.3 -11.8°
Maximum altitude 22:33:44 53° 127° (SE) 1,329 4.5 -13.5°
Enters shadow 22:38:27 19° 57° (ENE) 2,174 5.2 -14.5°
